Home   Weather   Canterbury   Past weeks

Flag for United Kingdom Past Weather in Canterbury, England, United Kingdom — Yesterday and Last 2 Weeks

Now
56 °F

Cool.


Feels Like: 55 °F
Forecast: 46 / 57 °F
Wind: 6 mph from Southeast

Location: Manston

Current Time: Apr 29, 2017 at 12:49:23 pm

Latest Report: Apr 29, 2017 at 11:00 am


Visibility: 14 mi

Pressure: 30.02 "Hg

Humidity: 61%

Dew Point: 43 °F

Location of CanterburyLocation

Past Weather in Canterbury — Graph

°F

Canterbury Temperature Yesterday

Maximum temperature yesterday: 53 °F (at 4:00 pm)
Minimum temperature yesterday: 43 °F (at 1:00 am)
Average temperature yesterday: 48 °F

High & Low Weather Summary for the Past Weeks

 TemperatureHumidityPressure
High58 °F (Apr 14, 3:00 pm)97% (Apr 28, 2:00 am)30.65 "Hg (Apr 28, 2:00 am)
Low34 °F (Apr 20, 3:00 am)39% (Apr 25, 5:00 pm)29.86 "Hg (Apr 24, 7:00 pm)
Average47 °F72%30.20 "Hg
* Reported Apr 14 11:00 am — Apr 29 11:00 am, Canterbury, Weather by CustomWeather, © 2017

Note: Actual official high and low records may vary slightly from our data, if they occured in-between our weather recording intervals... More about our weather records

Advertising

Canterbury Weather History for the Previous 24 Hours

Scroll right to see more
 ConditionsComfort  
Time TempWeatherWind HumidityBarometerVisibility
11:00 am
Sat, Apr 29
56 °FCool.6 mph61%30.02 "Hg14 mi
10:00 am54 °FCool.7 mph65%30.03 "Hg19 mi
9:00 am52 °FCool.10 mph81%30.03 "Hg12 mi
8:00 am49 °FCool.9 mph88%30.03 "Hg7 mi
7:00 am47 °FSmoke.6 mph94%30.03 "Hg6 mi
6:00 am47 °FCool.6 mph95%30.02 "Hg6 mi
5:00 am47 °FCool.6 mph93%30.02 "Hg6 mi
4:00 am48 °FCool.6 mph94%30.02 "Hg7 mi
3:00 am48 °FCool.6 mph94%30.03 "Hg9 mi
2:00 am47 °FCool.6 mph95%30.03 "Hg8 mi
1:00 am47 °FCool.6 mph93%30.04 "Hg8 mi
12:00 am46 °FCool.6 mph92%30.05 "Hg7 mi
11:00 pm
Fri, Apr 28
45 °FCool.5 mph90%30.05 "Hg7 mi
10:00 pm46 °FCool.3 mph84%30.05 "Hg11 mi
9:00 pm47 °FCool.5 mph82%30.04 "Hg11 mi
8:00 pm49 °FCool.No wind56%30.03 "Hg31 mi
7:00 pm52 °FCool.No wind53%30.03 "Hg22 mi
6:00 pm53 °FCool.7 mph52%30.03 "Hg13 mi
5:00 pm53 °FCool.8 mph53%30.03 "Hg13 mi
4:00 pm53 °FCool.10 mph57%30.03 "Hg14 mi
2:00 pm51 °FCool.9 mph61%30.04 "Hg17 mi
1:00 pm49 °FCool.9 mph65%30.03 "Hg19 mi
12:00 pm49 °FCool.12 mph65%30.03 "Hg25 mi
Weather by CustomWeather, © 2017

See weather overviewHow to use our weather pages